Location: Broome Park
(51.1833°N, 1.1667°E)
Time: 22:16:13
(UTC+00:00)

Daily predictions for brighter satellites

Satellite Brightness Start Highest point End
(mag) Time Altitude Azimuth Time Altitude Azimuth Time Altitude Azimuth
Cosmos 2227 Rocket 2.3 16:19:08 10° SSW 16:24:48 87° WNW 16:30:30 10° NNE
Cosmos 44 3.7 16:20:16 10° NW 16:25:43 82° SW 16:30:55 10° SE
Cosmos 1140 Rocket 4.0 16:21:35 10° NNW 16:26:24 36° NE 16:31:08 10° ESE
SAR-Lupe-2 3.7 16:27:12 10° SSE 16:30:41 52° ENE 16:34:12 10° N
Cosmos 1666 3.0 16:30:01 10° N 16:33:18 36° ENE 16:36:36 10° SE
Spot 4 Rocket 4.4 16:28:12 10° S 16:33:19 72° WSW 16:38:28 10° NNW
ARGOS 3.5 16:29:07 10° S 16:34:32 73° WSW 16:39:59 10° NNW
Cosmos 1603 4.2 16:30:55 10° NNW 16:36:16 40° NE 16:41:35 10° ESE
PSLV R/B 3.9 16:35:03 10° S 16:39:18 73° WSW 16:43:37 10° NNW
Cosmos 1076 Rocket 3.5 16:36:15 10° N 16:40:38 68° ENE 16:44:56 10° SSE
CZ-2C R/B 4.0 16:37:23 10° N 16:42:14 37° WNW 16:46:59 10° SW
Meteor 1-31 Rocket 3.2 16:40:32 10° SE 16:43:56 37° ENE 16:47:24 10° N
Cosmos 1544 2.9 16:42:15 10° NNW 16:45:31 78° W 16:48:46 10° S
USA 306 3.4 16:43:45 10° W 16:45:46 28° SSW 16:47:39 10° SSE
Tsikada Rocket 4.4 16:41:00 10° SSW 16:47:10 66° WNW 16:53:20 10° N
SJ-7 4.3 16:44:55 10° SSE 16:48:54 76° ENE 16:52:57 10° N
SL-16 R/B 3.3 16:43:52 10° NW 16:49:21 51° WSW 16:54:49 10° S
ATLAS CENTAUR R/B 2.4 16:45:46 10° WNW 16:49:30 87° SSW 16:56:42 10° SE
Cosmos 1238 Rocket 3.7 16:46:52 10° SSW 16:50:13 41° WNW 16:53:13 10° N
Cosmos 1602 3.8 16:48:35 10° N 16:52:14 49° ENE 16:55:51 10° SSE
RESURS DK-1 3.9 16:51:21 10° N 16:54:15 18° NE 16:56:12 14° ENE
USA 305 3.0 16:50:39 10° WNW 16:54:26 67° SSW 16:58:14 10° SE
Cosmos 1607 4.0 16:50:28 10° SW 16:56:50 89° ESE 17:03:17 10° NE
Cosmos 1606 4.4 16:54:10 10° SW 16:57:27 31° WNW 17:00:46 10° N
CZ-4B R/B 3.9 16:55:19 10° SE 16:59:58 39° ENE 17:04:32 10° N
Cosmos 1943 3.1 16:54:47 10° NNW 17:00:26 72° ENE 17:06:04 10° SE
Helios 1A 4.1 16:58:42 12° NE 17:01:40 23° E 17:05:01 10° SSE
Cosmos 1782 4.3 16:59:29 10° SE 17:02:04 17° E 17:03:02 16° ENE
ATLAS 2AS CENTAUR R/B 3.0 16:55:32 10° NW 17:02:17 45° NNE 17:08:42 10° ESE
Cosmos 1812 Rocket 4.4 16:58:37 10° SSE 17:02:21 29° E 17:06:07 10° NNE
Cosmos 1500 3.3 17:00:26 10° NNW 17:03:58 71° W 17:07:28 10° S
SMAP 3.0 17:01:54 10° SSE 17:06:34 80° ENE 17:11:15 10° NNW
Helios 1B rocket 3.2 17:03:14 10° S 17:07:05 53° W 17:10:58 10° NNW
NOAA 6 4.5 17:03:10 10° SE 17:07:50 37° ENE 17:12:31 10° N
CZ-4B R/B 3.5 17:06:20 10° SSE 17:09:55 71° ENE 17:13:35 10° N
Cosmos 407 Rocket 3.5 17:06:47 10° NNW 17:11:54 58° ENE 17:16:57 10° SE
SL-16 R/B 4.2 17:07:23 10° N 17:12:39 29° NW 17:17:55 10° WSW
Cosmos 2297 Rocket 3.7 17:08:08 10° WSW 17:13:06 31° NW 17:18:07 10° NNE
SOZ 4.2 17:12:17 10° WSW 17:14:26 62° SSE 17:16:20 21° E
Radarsat Rocket 4.2 17:08:54 10° SE 17:14:27 47° ENE 17:20:21 10° N
Cosmos 405 Rocket 3.8 17:12:34 10° SSW 17:16:14 45° WNW 17:19:59 10° N
ISS -1.1 17:15:27 10° W 17:18:02 20° SW 17:20:35 10° SSE
Cosmos 2219 3.7 17:13:57 10° SW 17:19:29 58° NW 17:25:05 10° NNE
Cosmos 2251 Rocket 3.5 17:14:20 10° NNW 17:19:42 70° ENE 17:25:03 10° SSE
ADEOS Rocket 4.5 17:22:48 14° NE 17:22:48 14° NE 17:25:05 10° NNE
Cosmos 220 Rocket 4.5 17:19:24 10° NNW 17:23:28 37° ENE 17:27:26 10° SE
Lacrosse 5 3.1 17:26:02 10° S 17:30:04 24° SE 17:31:43 21° E
COSMO-SKYMED 1 3.3 17:29:30 24° NE 17:31:11 31° E 17:35:04 10° SSE
Cosmos-2242 2.9 17:27:29 10° S 17:31:47 69° E 17:36:06 10° NNE
Lacrosse 4 Rocket 1.9 17:27:53 10° NW 17:32:13 64° WSW 17:36:25 10° SSE
Cosmos 1833 Rocket 4.0 17:28:49 10° NNW 17:32:59 20° NE 17:33:48 20° NE
Cosmos 2082 4.0 17:28:56 10° SW 17:34:31 68° WNW 17:39:45 12° NNE
Cosmos 2058 Rocket 4.2 17:30:40 10° SSW 17:34:54 44° WNW 17:39:09 10° N
Cosmos 1553 Rocket 4.5 17:32:16 10° N 17:38:05 36° ENE 17:43:47 10° SE
APEX 2.6 17:37:08 10° SSW 17:39:57 47° ESE 17:39:57 47° ESE
Meteor 1-25 Rocket 4.1 17:35:42 10° NNW 17:41:25 86° ENE 17:47:01 10° SSE
USA 234 3.7 17:37:35 23° ENE 17:41:29 47° SE 17:47:45 10° SSW
Meteor 2-2 Rocket 4.3 17:35:52 10° S 17:41:32 60° E 17:47:20 10° NNE
Cosmos 2221 3.9 17:38:57 10° SE 17:41:02 21° ESE 17:41:02 21° ESE
Cosmos 2344 3.6 17:35:14 10° SSW 17:42:30 54° ESE 17:47:05 23° ENE
Cosmos 1190 Rocket 4.0 17:38:42 10° NNW 17:44:00 63° ENE 17:49:14 10° SE
Cosmos 1812 2.5 17:41:11 10° S 17:44:52 90° WNW 17:47:41 17° N
Cosmos 1818 3.8 17:41:11 10° SSW 17:46:24 50° ESE 17:48:46 30° ENE
USA 276 2.4 17:45:59 10° WSW 17:48:03 41° S 17:48:03 41° S
Cosmos 2026 Rocket 4.1 17:42:36 10° SSE 17:48:41 55° E 17:54:53 10° NNE
Cosmos 2195 Rocket 4.4 17:49:30 10° S 17:55:47 72° E 18:02:02 10° NNE
CZ-4B R/B 4.3 18:01:43 26° NE 18:01:43 26° NE 18:05:13 10° N
Cosmos 2263 Rocket 2.9 17:55:15 10° SW 18:00:40 51° NW 18:05:03 16° NNE
Cosmos 1844 Rocket 2.9 17:55:25 10° S 18:00:40 45° ESE 18:02:02 37° ENE
Meteor 1-26 Rocket 4.4 17:56:40 10° SSE 18:01:56 46° E 18:04:18 30° NE
Cosmos 1766 Rocket 3.5 17:58:44 10° N 18:03:03 55° ENE 18:07:19 10° SSE
YAOGAN 1 3.1 18:07:03 40° NNE 18:07:03 40° NNE 18:10:15 10° N
Cosmos 1092 Rocket 3.8 18:00:03 10° S 18:06:09 74° E 18:12:18 10° NNE
Nadezhda 4 Rocket 4.3 18:00:12 10° SSW 18:06:18 66° WNW 18:12:24 10° N
Cosmos 1933 3.1 18:03:26 10° S 18:07:24 71° E 18:07:55 61° NE
Cosmos 1420 Rocket 4.2 18:02:55 10° S 18:07:54 46° ESE 18:08:28 44° E
Cosmos 2227 4.2 18:03:28 10° SSW 18:09:14 89° WNW 18:12:32 27° NNE
Cosmos 2227 Rocket 4.1 18:05:11 10° W 18:09:40 23° NW 18:14:00 11° NNE
Cosmos 2082 Rocket 4.0 18:06:42 10° N 18:09:22 16° NNE 18:09:22 16° NNE
YAOGAN 3 4.4 18:06:48 10° SSE 18:11:05 65° ENE 18:15:22 10° N
ADEOS 3.4 18:06:07 10° SSE 18:11:19 81° ENE 18:16:35 10° NNW
Meteor 1-5 Rocket 4.1 18:06:26 10° N 18:12:08 78° ENE 18:18:00 10° SSE
Cosmos 1624 Rocket 4.2 18:10:43 10° S 18:15:39 47° ESE 18:15:39 47° ESE
BREEZE-M DEB (TANK) 3.3 18:14:05 10° WSW 18:15:04 26° WSW 18:15:04 26° WSW
SKYMED 2 3.4 18:18:08 45° NNE 18:19:28 88° ESE 18:23:48 10° SSW
CZ-4B R/B 3.5 18:20:41 45° N 18:20:41 45° N 18:23:41 10° N
SL-08 R/B 3.1 18:25:44 72° E 18:25:51 72° ESE 18:30:28 10° S
Cosmos 192 4.1 18:23:13 10° SSW 18:28:06 79° ESE 18:28:35 70° NE
RESURS DK-1 2.6 18:28:30 10° NNW 18:31:56 61° NW 18:31:56 61° NW
Helios 1A 4.1 18:35:01 24° N 18:37:05 42° WNW 18:41:00 10° SW
Cosmos 1782 3.6 18:33:48 10° SSW 18:37:36 48° WNW 18:38:16 43° NW
Cosmos 676 Rocket 4.0 18:32:35 10° NNW 18:37:55 82° WSW 18:40:04 37° SSE
ATLAS 2AS CENTAUR R/B 2.9 18:46:43 10° NW 18:53:34 66° SW 18:56:38 33° SSE
CZ-4B DEB 4.3 18:53:03 24° S 18:56:34 76° WSW 19:02:09 10° NNW
Cosmos 1241 Rocket 4.4 18:54:39 10° SSW 19:00:35 71° SSE 19:00:35 71° SSE
ADEOS Rocket 4.2 19:09:44 27° N 19:09:44 27° N 19:12:20 10° N
COSMO-SKYMED 1 4.1 19:06:43 32° NW 19:07:22 34° WNW 19:11:18 10° SW
Cosmos 2056 Rocket 3.9 19:04:13 10° SSW 19:09:06 65° W 19:09:06 65° W
Lacrosse 5 2.7 19:07:28 10° WSW 19:10:56 45° SW 19:10:56 45° SW
Cosmos 1844 3.9 19:06:50 10° SW 19:12:19 69° WNW 19:12:19 69° WNW
COSMOS 2455 4.1 19:07:19 10° SSW 19:10:14 29° S 19:10:14 29° S
Timation 2 Rocket 4.0 19:09:39 10° SW 19:15:37 68° NW 19:15:41 68° NW
Cosmos 1833 Rocket 3.8 19:12:16 10° NNW 19:15:30 35° NNW 19:15:30 35° NNW
S3M 4.5 19:15:42 10° NNW 19:20:09 50° NNW 19:20:09 50° NNW
USA 234 3.2 19:24:56 78° NW 19:24:56 78° NW 19:31:21 10° WSW
Cosmos 1844 Rocket 3.9 19:39:25 10° WSW 19:43:43 37° WNW 19:43:43 37° WNW
Cosmos 2263 Rocket 4.4 19:42:30 10° WNW 19:45:58 16° NNW 19:46:45 16° NNW
Cosmos 2082 Rocket 4.5 19:50:09 10° NNW 19:51:12 16° NNW 19:51:12 16° NNW
Cosmos 2344 4.0 19:49:55 10° WSW 19:56:58 50° NNW 19:57:06 50° NNW
